Terminal Aerodrome Forecast
Issued by NWS

Current Version | Previous Version | Graphics & Text | Print | Product List | Glossary On
Versions: 1 2 3 4 5 6 7 8 9 10 11 12 13 14 15 16 17 18 19 20 21 22 23 24 25 26 27 28 29 30 31 32 33 34 35 36 37 38 39 40 41
000
FTUS41 KRNK 161537 AAA
TAFLWB
TAF AMD
KLWB 161537Z 1616/1712 24004KT P6SM SCT020 BKN045
     FM162000 27007G14KT P6SM OVC025
     FM170000 28008KT P6SM OVC018=

USA.gov is the U.S. government's official web portal to all federal, state and local government web resources and services.